Regional Weather Roundup
Issued by NWS Pendleton, OR

Home | Current Version | Previous Version | Text Only | Print | Product List | Glossary On
Versions: 1 2 3 4 5 6 7 8 9 10 11 12 13 14 15 16 17 18 19 20 21 22 23 24 25 26 27 28 29 30 31 32 33 34 35 36 37 38 39 40 41 42 43 44 45 46 47 48 49 50
000
ASUS46 KPDT 261510
RWRPDT
PENDLETON REGIONAL WEATHER ROUNDUP
NATIONAL WEATHER SERVICE PENDLETON OREGON
800 AM PDT TUE MAY 26 2015

NOTE: FAIR INDICATES FEW OR NO CLOUDS BELOW 12,000 FEET WITH NO
SIGNIFICANT WEATHER AND/OR OBSTRUCTIONS TO VISIBILITY.

# INDICATES UNOFFICIAL STATION AND DATA

WAZ520-261610-
EAST SLOPES OF WASHINGTON CASCADES

CITY            SKY/WX      TMP DP  RH  WIND    PRES   REMARKS
#BULLFROG 2SW   N/A         55  46  72  N2      27.60F
#BUMPING DAM    N/A         40  N/A N/A CALM    N/A
#CLE ELUM HS    N/A         52  44  74  W2      29.94F
#CLE ELUM LAKE  N/A         48  43  83  CALM    29.92S
#CLIFFDEL 2NW   N/A         47  43  86  CALM    N/A
#EASTON DOT     N/A         51  39  63  N1      N/A
#GLENWOOD       N/A         48  47  96  CALM    29.95S
#NELSON         N/A         54  47  77  CALM    29.95S
#NELSON 3SW     N/A         53  45  74  CALM    30.13S
#NILE           N/A         55  46  72  CALM    29.23R
#PEOH POINT     N/A         46  43  89  W6      N/A
#RONALD 2NW     N/A         49  -4  11  N1      29.87S
#SNOWDEN        N/A         50  42  74  NW3     N/A
#SOUTH BLEWITT  N/A         46  42  86  CALM    N/A
#TEANAWAY 4NE   N/A         47  44  89  CALM    N/A
#TROUT LAKE 1NE N/A         54  48  80  CALM    29.94F
$$

WAZ521-261610-
SIMCOE HIGHLANDS

CITY            SKY/WX      TMP DP  RH  WIND    PRES   REMARKS
#SATUS PASS DOT N/A         49  42  77  CALM    N/A
#CENTERVILLE 4W N/A         56  47  72  NW10    29.73R
#CENTERVILLE 1SWN/A         55  45  69  W9      29.92S
#GOLDENDALE     N/A         51  46  83  W2      N/A
#GOLDENDALE 1NE N/A         53  42  66  CALM    N/A
#GOODNOE HILLS  N/A         58  47  67  W8      N/A
#LYLE 6NE       N/A         53  47  80  S6      29.93S
$$

WAZ026-261610-
KITTITAS VALLEY

CITY            SKY/WX      TMP DP  RH  WIND    PRES   REMARKS
ELLENSBURG AP   SUNNY       56  44  64  N13     29.97R
#ELLENSBURG CWU N/A         56  46  69  N9      29.88S
#ELLENSBURG 3NE N/A         53  45  74  N6      29.97R
#ELLENSBURG 1E  N/A         55  44  66  NW1     N/A
#KITTITAS 4N    N/A         53  46  77  NW3     28.28R
#KITTITAS 3S    N/A         55  50  83  CALM    29.92S
#THORP 6N       N/A         51  45  80  NW12    29.94S
$$

WAZ027-261610-
YAKIMA VALLEY

CITY            SKY/WX      TMP DP  RH  WIND    PRES   REMARKS
SUNNYSIDE AP    CLOUDY      57  46  67  CALM    29.95R
YAKIMA AIRPORT  PTCLDY      63  44  50  N8      29.97R
#DONALD 2NE     N/A         66  38  36  CALM    28.81R
#GRANDVIEW      N/A         60  44  55  CALM    29.95R
#MABTON         N/A         62  48  60  W7      29.95R
#NACHES 2SW     N/A         57  46  67  W9      29.97R
#TERRACE HTS    N/A         58  45  62  CALM    29.89R
#TOPPENISH      N/A         60  46  60  W2      29.85R
#WAPATO 4NE     N/A         66  38  36  CALM    28.81R
#WEST VALLEY    N/A         61  45  56  N7      29.92R
#W YAKIMA       N/A         60  46  60  NE3     29.92S
#WHITE SWAN 5E  N/A         59  51  75  S3      29.94R
#WILEY CITY 3W  N/A         59  44  57  CALM    29.93S
$$

WAZ028-261610-
LOWER COLUMBIA BASIN...WASHINGTON

CITY            SKY/WX      TMP DP  RH  WIND    PRES   REMARKS
PASCO           MOCLDY      61  50  67  SW6     29.96R
RICHLAND AWOS   CLOUDY      63  50  62  CALM    29.95R
#BASIN CITY 5SW N/A         58  54  87  E1      29.95R
#BENTON CITY    N/A         61  50  67  CALM    29.84R
#CONNELL 5N     N/A         58  51  77  SW1     29.92R
#CONNELL 5NW    N/A         55  51  86  CALM    29.89R
#ELTOPIA        N/A         60  55  84  CALM    29.90R
#ELTOPIA 6NW    N/A         58  52  80  CALM    28.92R
#KAHLOTUS       N/A         57  49  75  SW7     29.92R
#KENNEWICK      N/A         55  46  72  N2      27.60F
#KENNEWICK 3S   N/A         58  50  75  S6      29.93R
#PATERSON       N/A         58  49  72  SW7     29.93S
#PROSSER DOT    N/A         61  49  65  CALM    N/A
#PROSSER        N/A         60  48  64  NW2     29.93R
#SAGEMOOR 2W    N/A         58  54  87  CALM    29.78R
#TOUCHET 2S     N/A         59  50  72  SW7     29.93R
#WEST PASCO     N/A         64  52  65  CALM    29.94R
$$

WAZ029-261610-
FOOTHILLS OF THE BLUES...WASHINGTON

CITY            SKY/WX      TMP DP  RH  WIND    PRES   REMARKS
WALLA WALLA AP  PTCLDY      60  49  67  S10     29.97R
#DAYTON SCHOOL  N/A         57  45  64  NE6     29.98R
#LOWDEN 2SE     N/A         61  52  72  SW3     29.93R
#PLEASANT VIEW 1N/A         55  49  80  S9      29.95S
#PRESCOTT       N/A         57  52  83  CALM    29.93S
#SUDBURY        N/A         62  N/A N/A CALM    N/A
#WHITMAN COLLEGEN/A         58  50  75  SW3     29.99R
#WAITSBURG 8N   N/A         55  34  45  S9      29.82R
#WALLA WALLA U  N/A         60  50  69  S2      29.94
#WHITMAN MISSIONN/A         59  52  78  SW2     29.96R
$$

WAZ030-261610-
BLUE MOUNTAINS...WASHINGTON

CITY            SKY/WX      TMP DP  RH  WIND    PRES   REMARKS
#DIXIE 5SE      N/A         50  45  83  SW5     29.92R
$$

ORZ009-041-WAZ024-261610-
COLUMBIA RIVER GORGE

CITY            SKY/WX      TMP DP  RH  WIND    PRES   REMARKS
HOOD RIVER AP   SUNNY       59  48  67  W8      30.00S
THE DALLES AP   SUNNY       63  47  56  NW9     29.98S
#ARLINGTON AIRPON/A         59  48  67  W12     29.82S
#CELILO DOT     N/A         63  46  54  SW6     N/A
#MARYHILL       N/A         58  46  64  CALM    N/A
#MOSIER 1S      N/A         57  40  53  NW6     29.97S
#MURDOCK        N/A         61  50  67  NW15    29.99R
#RUFUS DOT      N/A         61  46  58  W10     N/A

$$

ORZ510-261610-
NORTH CENTRAL OREGON

CITY            SKY/WX      TMP DP  RH  WIND    PRES   REMARKS
#CHENOWITH 1W   N/A         53  46  77  NW21    N/A
#COW CYN RST AREN/A         51  36  56  SW3     N/A
#DUFUR 9E       N/A         51  45  80  NW5     30.01R
#GRASS VALLEY 1SN/A         55  45  69  CALM    29.97S
#KENT DOT       N/A         52  38  59  SW8     N/A
#MAUPIN SCHOOL  N/A         54  46  74  CALM    30.01S
#MORO SCHOOL    N/A         54  50  86  W7      30.00R
#SHANIKO 5WSW   N/A         49  37  63  S8      N/A
#SHANIKO 4NW    N/A         48  40  74  W7      29.99S
#TYGH VALLEY 2NEN/A         52  46  80  CALM    29.97S
#WAPANITIA AIRPON/A         54  44  69  CALM    29.96S
#WASCO DOT      N/A         58  46  64  W10     N/A
#WASCO 5NE      N/A         56  46  69  W7      29.95R
$$

ORZ511-261610-
CENTRAL OREGON

CITY            SKY/WX      TMP DP  RH  WIND    PRES   REMARKS
BEND AIRPORT    SUNNY       54  39  57  CALM    30.02R
MADRAS AIRPORT  SUNNY       52  43  71  CALM    30.03R
PRINEVILLE AP   SUNNY       48  39  71  CALM    30.02R
#BEND 1SW       N/A         48  42  80  W1      N/A
#BEND-AWBREY    N/A         49  41  74  S3      29.93R
#BEND-KIM LN    N/A         49  42  77  SW2     29.99R
#CROOKED RVR RANN/A         54  43  66  CALM    29.94R
#CULVER         N/A         51  43  74  CALM    29.98R
#LAKE BILLY CHINN/A         50  24  36  N2      30.10S
#POWELL BUTTE   N/A         64  49  58  N2      29.64R
#PRINEVILLE 3N  N/A         50  42  74  CALM    29.94R
#WARM SPRINGS   N/A         54  44  69  CALM    29.98S

$$


ORZ509-261610-
EAST SLOPES OF OREGON CASCADES

CITY            SKY/WX      TMP DP  RH  WIND    PRES   REMARKS
#CAMP SHERMAN   N/A         43  41  93  CALM    29.97F
#LA PINE 4NW    N/A         45  38  76  CALM    29.99S
#SISTERS AIRPOR N/A         51  44  77  CALM    30.17S
#SISTERS ODOT   N/A         51  N/A N/A CALM    N/A
#SISTERS 3N     N/A         49  39  68  CALM    30.01S
#SUNRIVER       N/A         46  41  83  S1      29.84S
#TUMALO 3W      N/A         54  36  50  S1      29.82S

$$

ORZ044-261610-
LOWER COLUMBIA BASIN...OREGON

CITY            SKY/WX      TMP DP  RH  WIND    PRES   REMARKS
HERMISTON       PTCLDY      60  46  60  W8      29.96S
#BOARDMAN SCHOOLN/A         60  49  67  SW7     29.97R
#ECHO 8SW       N/A         61  47  60  SW20    29.97R
#IONE SCHOOL    N/A         59  43  55  W7      29.96R
#IRRIGON 4NW    N/A         59  51  75  S1      N/A
#UMATILLA SCHOOLN/A         61  51  70  CALM    29.98F
#UMATILLA       N/A         59  47  64  CALM    29.89R
$$

ORZ507-261610-
NORTHERN FOOTHILLS OF THE BLUES

CITY            SKY/WX      TMP DP  RH  WIND    PRES   REMARKS
PENDLETON AIRPT PTCLDY      58  44  60  CALM    29.97R
#ADAMS 3WNW     N/A         56  49  77  SW1     29.94S
#ATHENA         N/A         57  48  72  CALM    29.96R
#CAYUSE         N/A         58  47  67  CALM    29.94R
#HELIX SCHOOL   N/A         56  47  72  SW7     29.93S
#HELIX 3N       N/A         54  46  74  SW13    29.95R
#HELIX 6SW      N/A         56  46  69  SW7     29.97
#HOLDMAN 6E     N/A         56  46  69  NE8     29.75R
#M-F FERNDALE   N/A         59  49  69  CALM    29.96S
#M-F GROVE ELEM N/A         60  46  60  CALM    29.96R
#M-FREEWATER 5SEN/A         56  52  86  CALM    29.97R
#PENDLETON DNTN N/A         55  46  72  CALM    29.96S
#PDT AQUATIC CTRN/A         58  46  64  CALM    29.98S
#PENDLETON 5NE  N/A         58  49  72  CALM    29.94R
#PDT SUNRIDGE   N/A         57  48  72  CALM    29.98S
#PENDLETON 7NW  N/A         59  48  67  CALM    29.91S
#PILOT ROCK     N/A         59  44  57  CALM    29.98F
#TUTUILLA       N/A         60  47  62  CALM    29.97R
#UMAPINE 2E     N/A         62  52  70  SW3     29.94R
#WESTON SCHOOL  N/A         56  43  62  NW7     29.93F

$$

ORZ508-261610-
SOUTHERN FOOTHILLS OF THE BLUES

CITY            SKY/WX      TMP DP  RH  WIND    PRES   REMARKS
#AJAX           N/A         53  39  59  CALM    29.93S
#CONDON 5W      N/A         50  40  68  SW8     29.96S
#FOSSIL SCHOOL  N/A         51  43  74  CALM    29.97F
#HEPPNER EOC    N/A         57  44  62  W1      29.88S
#HEPPNER 4NE    N/A         55  43  64  SW5     29.93S
#LEXINGTON 2SE  N/A         61  46  58  W5      29.94F
#RUGGS 5NE      N/A         57  43  59  S3      30.17R
#RUGGS 2SW      N/A         53  42  66  CALM    29.96S

$$

ORZ502-503-261610-
BLUE MOUNTAINS

CITY            SKY/WX      TMP DP  RH  WIND    PRES   REMARKS
MEACHAM         PTCLDY      53  42  66  CALM    29.99S
#BATTLE MTN DOT N/A         46  43  89  SE3     N/A
#HEPPNER 15SE   N/A         49  43  80  W1      29.89S
#LADD CYN SMT   N/A         53  43  69  SW8     N/A
#LONG CREEK HS  N/A         51  44  77  CALM    29.96S
#N POWDER DOT   N/A         48  44  86  E3      N/A
#PIKES PEAK     N/A         50  44  80  SW12    27.99S
#TOLLGATE       N/A         43  42  96  CALM    29.94S
#TROY SCHOOL    N/A         60  47  62  SE2     29.78S
#UKIAH          N/A         45  43  93  CALM    30.01F
#WESTON 4E      N/A         51  44  77  SE2     29.87S
$$

ORZ505-261610-
JOHN DAY BASIN

CITY            SKY/WX      TMP DP  RH  WIND    PRES   REMARKS
JOHN DAY        SUNNY       49  40  71  E8      30.02R
#JOHN DAY KJDY  N/A         56  56  100 CALM    29.99R
#DAYVILLE SCHOOLN/A         51  41  68  CALM    29.99R
#MITCHELL       N/A         54  46  74  CALM    30.14S
#MONUMENT HS    N/A         53  41  64  SE1     30.01S
#MT. VERNON 5SE N/A         53  41  64  E2      29.97R
$$

ORZ506-261610-
OCHOCO AND JOHN DAY HIGHLANDS

CITY            SKY/WX      TMP DP  RH  WIND    PRES   REMARKS
#BUCK CREEK DOT N/A         52  52  100 NW2     N/A
#PAULINA SCHOOL N/A         50  38  63  CALM    30.00R
#PINE MTN OBS   N/A         46  30  53  CALM    N/A
#PRAIRIE CITY   N/A         55  45  69  CALM    29.98F
#SENECA         N/A         44  N/A N/A CALM    N/A
#SENECA 9NW     N/A         40  39  96  CALM    29.93S
$$

ORZ049-261610-
GRANDE RONDE VALLEY

CITY            SKY/WX      TMP DP  RH  WIND    PRES   REMARKS
LA GRANDE       PTCLDY      54  37  52  CALM    29.98S
#COVE           N/A         56  50  80  CALM    29.99S
#COVE SCHOOL    N/A         60  47  62  CALM    29.97S
#ELGIN 3N       N/A         56  46  69  NE3     29.97S
#ELGIN 1E       N/A         48  43  83  CALM    N/A
#ISLAND CITY 4N N/A         53  48  83  CALM    30.04R
#LADD CYN DOT   N/A         52  44  74  N2      N/A
#LA GRANDE ELEM N/A         56  42  59  NW7     30.01R
#UNION 1S       N/A         53  46  77  CALM    29.84S
$$

ORZ050-261610-
WALLOWA COUNTY

CITY            SKY/WX      TMP DP  RH  WIND    PRES   REMARKS
#ENTERPRISE HS  N/A         53  45  74  CALM    30.01F
#IMNAHA SCHOOL  N/A         56  46  69  S2      29.97F
#IMNAHA 10S     N/A         53  43  69  S1      29.97F
#JOSEPH 3N      N/A         48  39  71  CALM    30.02S
#JOSEPH 3W      N/A         55  41  59  E2      29.85R
#LOSTINE        N/A         50  42  74  CALM    29.74S
#MT HOWARD 8000 N/A         40  30  67  CALM    30.07R
#PROMISE 1S     N/A         50  46  86  CALM    30.01R
#SHEEP RDG 7000 N/A         43  32  65  CALM    29.94R
#WALLOWA SCHOOL N/A         44  41  89  CALM    30.86S



$$



USA.gov is the U.S. government's official web portal to all federal, state and local government web resources and services.